Regional Weather Roundup
Issued by NWS

Home | Current Version | Previous Version | Text Only | Print | Product List | Glossary On
Versions: 1 2 3 4 5 6 7 8 9 10 11 12 13 14 15 16 17 18 19 20 21 22 23 24 25 26 27 28 29 30 31 32 33 34 35 36 37 38 39 40 41 42 43 44 45 46 47 48 49 50
000
ASUS43 KTOP 291708
RWRKS

WEATHER ROUNDUP FOR KANSAS
NATIONAL WEATHER SERVICE GOODLAND KS
1200 PM CDT SUN MAY 29 2016

NOTE:  "FAIR" INDICATES FEW OR NO CLOUDS BELOW 12,000 FEET WITH NO
SIGNIFICANT WEATHER AND/OR OBSTRUCTIONS TO VISIBILITY.

KSZ001>006-013>018-027>032-041>047-291800-
NORTHWEST KANSAS

CITY           SKY/WX    TMP DP  RH WIND       PRES   REMARKS
GOODLAND       SUNNY     76  52  43 S16G22    30.12F
HAYS           SUNNY     81  59  47 S9        30.10S
HILL CITY      SUNNY     83  56  39 SW12      30.10F
RUSSELL        SUNNY     81  60  48 S9        30.09F
$$

KSZ061>065-074>080-084>089-291800-
SOUTHWEST KANSAS

CITY           SKY/WX    TMP DP  RH WIND       PRES   REMARKS
DODGE CITY     MOSUNNY   78  54  43 S15       30.14R
ELKHART          N/A     76  60  57 S15         N/A
GARDEN CITY    SUNNY     81  55  40 S24G33    30.12F
GREAT BEND     SUNNY     79  59  50 S15       30.11R
LIBERAL        CLOUDY    70  57  64 S12       30.17S
PRATT          CLOUDY    74  59  58 SW15      30.15R
$$

KSZ066>073-081>083-090>101-291800-
SOUTHEAST KANSAS

CITY           SKY/WX    TMP DP  RH WIND       PRES   REMARKS
CHANUTE        MOSUNNY   82  67  60 W6        30.12F
COFFEYVILLE    MOSUNNY   84  68  58 VRB7      30.12F
HUTCHINSON     SUNNY     83  68  60 S7        30.11S
MEDICINE LODGE   N/A     77  58  51 SW7       30.13F
NEWTON         CLOUDY    81  63  54 S7        30.15S
PARSONS        MOSUNNY   83  68  60 SW6       30.14S
WICHITA INTL   CLOUDY    81  71  71 S12       30.11S
WICHITA JABRA  CLOUDY    81  67  62 S8        30.11F
WICHITA MCCONL PTSUNNY   81  70  69 S7        30.11F
WINFIELD       CLOUDY    81  69  67 W7        30.13S
$$

KSZ007>012-019>026-033>040-048>060-102>105-291800-
NORTHEAST KANSAS

CITY           SKY/WX    TMP DP  RH WIND       PRES   REMARKS
CONCORDIA      SUNNY     77  60  55 SW9       30.11S
EMPORIA        SUNNY     82  65  56 W5        30.12F
LAWRENCE       SUNNY     82  62  50 W5        30.11F
MANHATTAN      CLOUDY    82  62  50 SW5       30.10F
MARYSVILLE     SUNNY     79  63  57 W7        30.12F
OLATHE IND     SUNNY     82  56  40 W8        30.13S
OLATHE EXE     SUNNY     81  59  47 SW7       30.12F
SALINA         SUNNY     85  64  49 SW6       30.10F
TOPEKA BILLARD SUNNY     84  53  34 SW9       30.11S
TOPEKA FORBES  SUNNY     85  56  37 SW10      30.12S
$$




USA.gov is the U.S. government's official web portal to all federal, state and local government web resources and services.